Location: Sabalos
(43.2860°N, 0.1414°E)
Time: 21:10:10
(UTC+00:00)

Cosmos 2084 - Pass Details

Date: 05 July 2020
Orbit: 571 x 612 km, 62.8° (Epoch: 14 August)

Event Time Altitude Azimuth Distance (km) Brightness Sun altitude
Rises 21:39:16 0° 326° (NW) 2,883 8.9 -16.1°
Reaches altitude 10° 21:41:36 10° 331° (NNW) 1,974 7.5 -16.4°
Maximum altitude 21:45:59 53° 48° (NE) 753 4.0 -16.8°
Enters shadow 21:48:06 28° 113° (ESE) 1,154 4.5 -17.0°
